Location: Huesca
(42.1318°N, 0.4078°W)
Time: 11:52:42
(UTC+01:00)

O/OREOS (USA 219) - Pass Details

Date: 16 November 2024
Orbit: 590 x 609 km, 72.0° (Epoch: 06 December)

Event Time Altitude Azimuth Distance (km) Brightness Sun altitude
Rises 18:34:36 0° 200° (SSW) 2,819 ? -10.5°
Reaches altitude 10° 18:36:49 10° 200° (SSW) 1,919 ? -10.9°
Maximum altitude 18:41:07 87° 114° (ESE) 598 ? -11.6°
Drops below altitude 10° 18:45:26 10° 23° (NNE) 1,926 ? -12.4°
Enters shadow 18:46:20 - 23° (NNE) 2,294 ? -12.6°
